COSMOS 249 DEB *, 6176

Orbit data source: Space-Track

COSMOS 249 DEB *, 6176 is space debris in LEO originally from a launch on Sun, 20 Oct 1968 UTC launched from the Tyuratam Missile And Space Complex (TTMTR). Debris objects in space refer to the collection of defunct objects orbiting the Earth. Examples of debris include non-operational satellites, rocket bodies, and fragments generated from explosions, collisions, or faulty payload assembly.

Loading next visibility...
Identifier
6176, 1968-091CG
Orbit
LEO
Country
Flag of CISCIS
Related business
Manufacturer
Unknown
Mission
Spacecraft
Bus & Motor
Unknown
Mass
Unknown
Launch date (UTC)
1968-10-20 (58 years ago)
Launch vehicle
Unknown
Launch site
Tyuratam Missile And Space Complex (TTMTR)
Object type
Payload
Rocket body
Debris
Shape & HBR
Unknown shape, 0.1 m
Radar Cross Section
Medium (>0.1 m² and <1 m²)

Expand to show TLE details & history
Last TLE update: 2 days ago

TLE from 2 days ago
0 COSMOS 249 DEB *
1 06176U 68091CG  26173.51131247  .00000133  00000-0  35144-3 0  9994
2 06176  65.7266 216.2549 0460101  37.3565 325.8533 13.08540064159885
Epoch: 2026-06-22T12:16Z
TLE epoch observation values (Epoch: 2026-06-22T12:16:17.397Z)
Latitude
-0.00004°
Longitude
121.48621°
Altitude
946.412 km
Speed
7.515 km/s
True Right ascension
14h 25m 01s
True Declination
0° 00' 00"
Sunlit
Object was in full shadow at epoch
Visualization orbit readout
Latitude
Unknown
Longitude
Unknown
Altitude
Unknown
Speed
Unknown
Apparent Right ascension
Unknown
Apparent Declination
Unknown
Sunlit
N/A
Visualization observer readout
Local Sidereal Time
14:49:51
Azimuth
Unknown
Elevation
Unknown
Doppler factor
Unknown
Orbital elements
Apogee altitude
1,577.316 km
Perigee altitude
877.454 km
Semi-major axis
7,605.522 km
Eccentricity
0.04601
Inclination
65.7266°
RAAN
216.2549°
Arg. of periapsis
37.3565°
True anomaly
322.74779°
Mean anomaly
325.8533°
Eccentric anomaly
324.31556°
Mean motion
3.27227 °/min
Orbital period
110.02 mins
BSTAR
0.00035144
Loading maneuver chart data...
Computing Atmospheric mass density...

Documentation

Showing up to 5 results
|